Powrót do katalogu

ONEWEB-0507

AktywnyŁącznośćPO
NORAD 54125·PAYLOAD·🇬🇧 United Kingdom

Wystrzelony Oct 22, 2022 z Satish Dhawan Space Centre

Loading…

Następne Przeloty (najbliższe 24 godziny)

TLE

ŚwieżeSource: CelesTrak SupGP

Epoka: Sep 14, 2026, 18:13 UTC

1 54125C 22138N   26257.75917083 -.00002866  00000+0 -71675-2 0  2573
2 54125  87.9105 287.1302 0001992  87.9963  23.0420 13.19729163    19

Śledź ONEWEB-0507 w czasie rzeczywistym z AllMySat

Download on the App Store